loading
DOY 175 | 2024-06-23T11:16:30Z

THOR ABLESTAR DEB, 406

Orbit data source: Space-Track

THOR ABLESTAR DEB, 406 is space debris in LEO originally from a launch on Thu, 29 Jun 1961 UTC launched from the Air Force Eastern Test Range (AFETR). Debris objects in space refer to the collection of defunct objects orbiting the Earth. Examples of debris include non-operational satellites, rocket bodies, and fragments generated from explosions, collisions, or faulty payload assembly.

Loading next visibility...
Loading greatness...
THOR ABLESTAR DEB details
NORAD ID406
COSPAR ID
1961-015EF
Orbit
LEO
Last TLE update6 hours ago
Origin
Flag of USUSAF SSD (US)
ManufacturerUnknown
BusUnknown
MotorUnknown
MassWet unknown, Dry mass unknown
Launch date (UTC)
1961-06-29 (63 years ago)
Launch vehicleUnknown
Launch site
Air Force Eastern Test Range (AFETR)
Object type
Payload
Rocket body
Debris
Radar Cross SectionSmall (<0.1 m²)
Predictive object data (real-time)
Latitude-48.38114°
Longitude120.25754°
Altitude991.758 km
Speed7.371 km/s
Apparent Right ascension08h 46m 44s
Apparent Declination-46° 57' 46"
Sunlit
Object is in daylight
Predictive observer data (real-time)
Local Sidereal Time22:24:30
Azimuth119.831° SE
Elevation-71.005°
Doppler factor1
Orbital elements
Apogee1,090.005 km
Perigee917.892 km
Semi-major axis7,382.086 km
Eccentricity0.0116575
Inclination66.778°
RAAN259.169°
Arg. of periapsis165.3065°
True anomaly221.00628°
Mean anomaly221.8886°
Mean motion3.42196 °/min
BSTAR0.00070352
Period105.2 mins
Definitive object data (Epoch: 2024-06-23T05:00:35.949Z)
Latitude24.07648°
Longitude-76.84636°
Altitude1,072.124 km
Speed7.286 km/s
True Right ascension18h 00m 39s
True Declination23° 57' 15"
Sunlit
Object was in full shadow at TLE epoch
TLE from 6 hours ago
0 THOR ABLESTAR DEB
1   406U 61015EF  24175.20874941  .00000559  00000-0  70352-3 0  9996
2   406  66.7780 259.1690 0116575 165.3065 221.8886 13.68340303122538
Epoch: 2024-06-23T05:00Z
No data available

THOR ABLESTAR DEB Visibility forecast

Observer location: 39.9160978°, -105.1181434, 0m alt.

THOR ABLESTAR DEB is not visible in the next 10 days
Span
Click to sort rows by Start time (UTC) header in descending order
Start Az.
Max El. time (UTC)
Max El. Az.
Max El.
End time (UTC)
End Az.